Regional Weather Roundup
Issued by NWS

Home | Current Version | Previous Version | Text Only | Print | Product List | Glossary On
Versions: 1 2 3 4 5 6 7 8 9 10 11 12 13 14 15 16 17 18 19 20 21 22 23 24 25 26 27 28 29 30 31 32 33 34 35 36 37 38 39 40 41 42 43 44 45 46 47 48 49 50
000
ASUS43 KMPX 031801
RWRMN
WEATHER ROUNDUP FOR MINNESOTA
NATIONAL WEATHER SERVICE TWIN CITIES/CHANHASSEN MN
1200 PM CST SAT DEC 03 2016


NOTE: "FAIR" INDICATES FEW OR NO CLOUDS BELOW 12,000 FEET WITH NO
SIGNIFICANT WEATHER AND/OR OBSTRUCTIONS TO VISIBILITY. N/A MEANS
CURRENT SKY AND/OR WEATHER CONDITIONS ARE NOT AVAILABLE.

MNZ060>063-068>070-031900-
   Twin Cities Metro

CITY           SKY/WX    TMP DP  RH WIND       PRES   REMARKS
TWIN CITIES    CLOUDY    30  19  63 S3        30.27F
6HR MIN TEMP:  29; 6HR MAX TEMP:  30; 6HR PCP: TRACE;

ST PAUL        CLOUDY    30  21  69 CALM      30.29F
CRYSTAL        CLOUDY    30  18  60 SE6       30.26F WCI  24
LAKEVILLE      CLOUDY    28  21  74 NW3       30.27F
EDEN PRAIRIE   CLOUDY    30  19  63 CALM      30.26F
6HR MIN TEMP:  29; 6HR MAX TEMP:  31;

SOUTH ST PAUL  CLOUDY    31  20  63 W5        30.28F WCI  26
LAKE ELMO      CLOUDY    32  23  69 SW8       30.28S WCI  25
$$
MNZ001>005-007-008-013>017-022>024-027-028-031900-
   Northwest Minnesota

CITY           SKY/WX    TMP DP  RH WIND       PRES   REMARKS
BEMIDJI        CLOUDY    24  19  80 S8        30.17S WCI  15
HALLOCK        CLOUDY    28  25  86 S20G25    30.10F WCI  15
ROSEAU         CLOUDY    27  21  80 S15       30.14F WCI  15
WARROAD        CLOUDY    27  21  80 S7G16     30.15F WCI  19
THIEF RVR FALL CLOUDY    26  20  77 S14G22    30.15F WCI  14
CROOKSTON      CLOUDY    28  21  74 S16G22    30.15F WCI  17
FOSSTON        CLOUDY    25  19  80 SE10      30.15F WCI  15
DETROIT LAKES  PTSUNNY   28  21  74 S15       30.15F WCI  17
MOORHEAD       PTSUNNY   28  21  74 S16       30.15F WCI  17
PARK RAPIDS    CLOUDY    25  17  72 S8        30.17F WCI  16
$$
MNZ006-009>011-018-025>026-031900-
   North Central Minnesota

CITY           SKY/WX    TMP DP  RH WIND       PRES   REMARKS
BAUDETTE       CLOUDY    26  19  74 S12       30.17F WCI  16
FLAG ISLAND    CLOUDY    27  23  86 S20       30.14S WCI  13
INTL FALLS     CLOUDY    26  18  71 VRB5      30.19F WCI  20
6HR MIN TEMP:  24; 6HR MAX TEMP:  26;

WASKISH        CLOUDY    27  19  74 SE7       30.18F WCI  19
BIG FORK       CLOUDY    27  19  74 S7        30.19F WCI  19
LONGVILLE      CLOUDY    25  19  80 S9        30.20F WCI  15
GRAND RAPIDS   CLOUDY    26  20  77 S8        30.21F WCI  18
CRANE LAKE     CLOUDY    27  21  80 SW3       30.23F
ORR            CLOUDY    27  18  69 CALM      30.18F
COOK           CLOUDY    27  21  80 S5        30.20F WCI  21
$$
MNZ012-019>021-037-031900-
   Northeast Minnesota

CITY           SKY/WX    TMP DP  RH WIND       PRES   REMARKS
DULUTH         FLURRIES  27  24  89 SW3       30.21F
6HR MIN TEMP:  26; 6HR MAX TEMP:  27; 6HR PCP: TRACE;

ELY            CLOUDY    25  21  86 CALM      30.21F
HIBBING        CLOUDY    26  20  77 VRB3      30.20F
EVELETH        CLOUDY    28  21  77 S6        30.22S WCI  21
DULUTH HARBOR  FLURRIES  30  27  86 CALM      30.27F
TWO HARBORS    CLOUDY    30  27  86 W3        30.21F
SILVER BAY     CLOUDY    28  25  86 CALM      30.21F
GRAND MARAIS     N/A     34  25  69 CALM      30.24F
G MARAIS ARPRT CLOUDY    27  19  74 CALM      30.19F
$$
MNZ029>031-032-039>041-046>048-054>057-064-031900-
   West Central Minnesota

CITY           SKY/WX    TMP DP  RH WIND       PRES   REMARKS
FERGUS FALLS   SUNNY     28  21  74 S16       30.20F WCI  17
WHEATON        SUNNY    N/A N/A N/A SE16      30.17F
MORRIS         MOSUNNY   32  25  74 SE10      30.16F WCI  24
ALEXANDRIA     SUNNY     28  20  71 SE12      30.19F WCI  18
ELBOW LAKE     PTSUNNY   29  22  74 SE14      30.18F WCI  18
WADENA         PTSUNNY   25  18  74 S8        30.18F WCI  16
GLENWOOD       SUNNY     28  21  74 SE12      30.19F WCI  18
APPLETON       SUNNY     34  25  69 SE12      30.17F WCI  25
BENSON         MOSUNNY   32  23  69 SE7       30.18F WCI  26
ORTONVILLE     SUNNY     30  25  80 SE9G18    30.15F WCI  22
MADISON        SUNNY     34  27  75 SE16      30.17F WCI  23
WILLMAR        CLOUDY    30  25  80 SE8       30.22F WCI  23
$$
MNZ033>034-036-042>043-049>051-058-059-031900-
   Central Minnesota

CITY           SKY/WX    TMP DP  RH WIND       PRES   REMARKS
ST CLOUD       CLOUDY    27  19  72 S7        30.24F WCI  19
6HR MIN TEMP:  26; 6HR MAX TEMP:  28;

PAYNESVILLE    MOSUNNY   29  21  71 SE8       30.23F WCI  21
AITKIN         CLOUDY    30  19  64 SW5       30.20F WCI  25
PINE RIVER     CLOUDY    25  18  74 SE10      30.23F WCI  15
BRAINERD       CLOUDY    26  19  74 S7        30.22F WCI  18
STAPLES        CLOUDY    25  18  74 S7        30.20F WCI  17
LONG PRAIRIE   CLOUDY    28  19  69 E8        30.21F WCI  20
LITTLE FALLS   CLOUDY    28  19  69 S9        30.24S WCI  20
LITCHFIELD     SUNNY     30  21  69 SE3       30.23F
BUFFALO        CLOUDY    29  19  66 S3        30.26F
MAPLE LAKE     CLOUDY    31  23  72 S9        30.26F WCI  23
$$
MNZ037-044-045-052-053-031900-
   East Central Minnesota

CITY           SKY/WX    TMP DP  RH WIND       PRES   REMARKS
PRINCETON      CLOUDY    30  21  69 S5        30.26S WCI  25
MORA           CLOUDY    30  23  74 SW6       30.26S WCI  24
CAMBRIDGE      CLOUDY    34  21  60 SE5       30.24F WCI  30
RUSH CITY      CLOUDY    30  25  80 S5        30.26S WCI  25
MOOSE LAKE     CLOUDY    30  25  80 CALM      30.22S
HINCKLEY       CLOUDY    32  23  69 S6        30.25S WCI  26
CLOQUET        CLOUDY    28  23  80 CALM      30.22F
MCGREGOR       CLOUDY    30  23  74 SW5       30.22F WCI  25
$$
MNZ071>073-080-081-089-090-097-098-031900-
   Southwest Minnesota

CITY           SKY/WX    TMP DP  RH WIND       PRES   REMARKS
MONTEVIDEO     SUNNY     34  27  75 S12       30.20  WCI  25
GRANITE FALLS  SUNNY     33  26  75 SE12G17   30.21F WCI  24
CANBY          MOSUNNY   34  28  79 E7G17     30.17F WCI  28
MARSHALL       SUNNY     35  26  69 S14       30.18F WCI  26
REDWOOD FALLS  SUNNY     32  22  66 SE13      30.21F WCI  22
OLIVIA         MOSUNNY   32  25  74 SE7       30.21F WCI  26
PIPESTONE      MOSUNNY   34  30  86 S14       30.14F WCI  24
WINDOM         SUNNY     34  27  75 CALM      30.20F
WORTHINGTON    PTSUNNY   33  29  85 S17       30.20F WCI  22
JACKSON        SUNNY     32  27  80 SE9       30.21F WCI  24
TRACY          SUNNY     34  29  82 S13       30.19F WCI  25
SLAYTON        MOSUNNY   33  29  87 S13       30.19F WCI  23
$$
MNZ065>067-074>077-082>085-091>093-031900-
   South Central Minnesota

CITY           SKY/WX    TMP DP  RH WIND       PRES   REMARKS
MANKATO        CLOUDY    31  22  69 CALM      30.25F
NEW ULM        SUNNY     30  21  69 E5        30.23F WCI  25
ST JAMES       SUNNY     34  25  69 E8        30.23F WCI  27
FAIRMONT       MOSUNNY   34  23  64 SE9       30.24F WCI  27
GLENCOE        SUNNY     32  23  70 S3        30.24F
FARIBAULT      PTSUNNY   30  21  69 CALM      30.26F
OWATONNA       CLOUDY    30  19  64 CALM      30.25F
WASECA         PTSUNNY   32  23  69 CALM      30.26F
ALBERT LEA     SUNNY     34  27  75 N3        30.25F
$$
MNZ078>079-086>088-094>096-031900-
   Southeast Minnesota

CITY           SKY/WX    TMP DP  RH WIND       PRES   REMARKS
ROCHESTER      CLOUDY    29  23  78 NW6       30.26F WCI  23
6HR MIN TEMP:  28; 6HR MAX TEMP:  30;

RED WING       CLOUDY    30  19  64 SW3       30.28S
STANTON        CLOUDY    31  22  67 CALM      30.26F
DODGE CENTER   CLOUDY    30  21  69 CALM      30.25F
WINONA           N/A     34  25  69 W5        30.30S WCI  30
AUSTIN         PTSUNNY   32  21  64 N7        30.25F WCI  26
PRESTON        CLOUDY    30  20  68 NW5       30.27R WCI  25
$$
ABBREVIATIONS USED IN REMARKS
   TC - TEMPERATURES IN CELSIUS
  WCI - WIND CHILL INDEX
   HX - HEAT INDEX
  VSB - VISIBILITY
$$




USA.gov is the U.S. government's official web portal to all federal, state and local government web resources and services.